Regional Weather Roundup
Issued by NWS Midland/Odessa, TX

Skip options and go directly to product.
Home | Oldest Version | Previous Version | Current Version | All | Text Only | Save Text | Print | Product List | Glossary Off

Skip product version selection by date and time.   

841
ASUS44 KMAF 121210
RWRMAF
MIDLAND AREA WEATHER ROUNDUP
NATIONAL WEATHER SERVICE MIDLAND TX
600 AM CST FRI FEB 12 2016

...IN SOUTHWEST TEXAS AND SOUTHEAST NEW MEXICO...

CITY           SKY/WX    TMP DP  RH WIND       PRES   REMARKS
ALPINE         CLOUDY    36  17  47 SW5       30.33R WCI  32
ANDREWS        FAIR      34  25  68 CALM      30.24S
ARTESIA        CLOUDY    32  19  59 W3        30.24F
BIG SPRING     CLOUDY    32  24  72 CALM      30.26R
CARLSBAD       CLOUDY    33  20  58 N9        30.22S WCI  25
DRYDEN           N/A     48  20  32 W9        30.18R
FORT STOCKTON  CLOUDY    47  22  37 SW14      30.21S
GUAD PASS      CLOUDY    52  11  19 SW5       30.31R
HOBBS          CLOUDY    32  23  69 W7        30.24R WCI  26
MARFA          CLOUDY    26  13  57 NW8       30.31R WCI  18
MIDLAND AIRPK  CLOUDY    38  28  67 CALM      30.24R
MIDLAND INTL   CLOUDY    34  26  72 N5        30.23R WCI  30
ODESSA         CLOUDY    37  26  64 NE10      30.23R WCI  30
PECOS          CLOUDY    29  20  69 W5        30.23R WCI  24
PRESIDIO       FAIR      44  17  33 N8        30.25R WCI  39
SEMINOLE       CLEAR     32  25  74 NW3       30.25R
SNYDER           N/A     41  30  65 CALM      30.24R
WINK           CLOUDY    32  23  69 N7        30.21R WCI  26
$$
...OTHER STATIONS IN TEXAS...

CITY           SKY/WX    TMP DP  RH WIND       PRES   REMARKS
ABILENE        CLOUDY    41  32  70 N6        30.21R WCI  37
AMARILLO       CLOUDY    34  23  64 N12       30.27R WCI  25
AUSTIN         CLEAR     40  39  97 S3        30.18R
BROWNSVILLE    CLEAR     56  56 100 SE7       30.18R
CORPUS CHRISTI FOG       52  51  97 SE8       30.17R VSB 1/2
DALLAS FTW     CLEAR     44  35  70 N12       30.19R WCI  38
DEL RIO        CLEAR     46  30  53 N5        30.16R
EL PASO        MOCLDY    39  18  42 N8        30.28R WCI  33
HOUSTON INT    CLEAR     58  55  90 CALM      30.20R
LUBBOCK        CLOUDY    32  22  66 NW5       30.24R WCI  27
SAN ANGELO     PTCLDY    36  25  64 W6        30.21R WCI  31
SAN ANTONIO    CLEAR     45  41  86 CALM      30.17S
WACO           CLEAR     41  35  79 NW6       30.16R WCI  37
WICHITA FALLS  NOT AVBL
$$
...OTHER LOCATIONS IN NEW MEXICO...

CITY           SKY/WX    TMP DP  RH WIND       PRES   REMARKS
ALAMAGORDO     CLOUDY    37  10  32 CALM      30.28S
ALBUQUERQUE    CLOUDY    37  20  50 NW7       30.36S WCI  32
CANNON AFB     CLOUDY    34  19  54 N15       30.24R WCI  24
CLOVIS         CLOUDY    34  18  51 N15       30.26R WCI  24
HOLLOMAN AFB   CLOUDY    33   9  37 SE1       30.27S
ROSWELL        CLOUDY    34  16  47 NW5       30.26R WCI  30
RUIDOSO          N/A     43   3  19 SW7       30.37R WCI  39
SANTA FE       CLOUDY    31  19  61 N17       30.36S WCI  19
TRUTH OR CONSE CLEAR     43  14  31 NW9       30.32S WCI  38
TUCUMCARI      CLOUDY    31  21  66 N7        30.29S WCI  24
$$

USA.gov is the U.S. government's official web portal to all federal, state and local government web resources and services.